Miscellaneous Local Product
Issued by NWS Hastings, NE

Home | Current Version | Previous Version | Text Only | Print | Product List | Glossary Off
Versions: 1 2 3 4 5 6 7 8 9 10 11 12 13 14 15 16 17 18 19 20 21 22 23 24 25 26 27 28 29 30 31 32 33 34 35 36 37 38 39 40 41 42 43 44 45 46 47 48 49 50

000
AXUS43 KGID 230102
MISGRI

GID CWA HOURLY WEATHER ROUNDUP
NATIONAL WEATHER SERVICE HASTINGS NE
700 PM CST SAT NOV 22 2014

NOTE: "FAIR" INDICATES FEW OR NO CLOUDS BELOW 12,000 FEET WITH NO
SIGNIFICANT WEATHER AND/OR OBSTRUCTIONS TO VISIBILITY.

...SOUTH CENTRAL NEBRASKA...

CITY           SKY/WX    TMP DP  RH WIND       PRES   REMARKS
GRAND ISLAND   NOT AVBL
HASTINGS       PTCLDY    51  38  60 S8        29.56R
KEARNEY        MOCLDY    39  30  70 SE6       29.57S WCI  35
ORD            MOCLDY    41  27  57 CALM      29.52S
YORK           CLEAR     46  45  93 S8        29.58R
AURORA         PTCLDY    45  38  76 S5        29.57R
LEXINGTON      MOCLDY    47  32  56 SE6       29.53S
HOLDREGE       PTCLDY    44  31  60 S6        29.55R
HEBRON         CLOUDY    56  51  82 S18       29.59F

...NEBRASKA PANHANDLE...

CITY           SKY/WX    TMP DP  RH WIND       PRES   REMARKS
CHADRON        CLOUDY    48  32  53 SW12      29.47S
ALLIANCE       CLOUDY    49  32  52 W14       29.53S
SCOTTSBLUFF    CLOUDY    49  32  52 W7        29.54F
SIDNEY         CLOUDY    50  19  29 NW16      29.57R

...WESTERN AND NORTH CENTRAL NEBRASKA...

CITY           SKY/WX    TMP DP  RH WIND       PRES   REMARKS
VALENTINE      CLOUDY    48  28  46 W6        29.46S
AINSWORTH      CLOUDY    49  27  42 SW6       29.47S
ONEILL         CLOUDY    52  32  47 S12       29.49S
BROKEN BOW     CLOUDY    46  27  47 CALM      29.52F
IMPERIAL       CLOUDY    47  14  26 N7        29.52S
NORTH PLATTE   MOCLDY    38  25  59 E8        29.51F WCI  32
MCCOOK         MOCLDY    50  17  27 S7        29.51S

...EASTERN NEBRASKA...

CITY           SKY/WX    TMP DP  RH WIND       PRES   REMARKS
NORFOLK        PTCLDY    45  39  79 S15       29.52F
SO SIOUX CITY  CLEAR     39  36  89 SE12      29.54F WCI  32
TEKAMAH        CLOUDY    51  46  83 S15       29.58S
COLUMBUS       PTCLDY    45  39  81 S8        29.58S
ALBION         PTCLDY    44  34  68 SE5       29.55S
OMAHA EPPLEY   CLOUDY    54  52  93 S15       29.60F
OFFUTT AFB     CLOUDY    54  52  94 SE10      29.60F
MILLARD        CLOUDY    55  51  87 SE9       29.60S
LINCOLN        CLOUDY    57  51  80 S23G31    29.58F
NEBRASKA CITY  CLOUDY    56  55  99 S15       29.64F
BEATRICE       CLOUDY    56  53  89 S12       29.62F
FALLS CITY     PTCLDY    55  52  89 S14       29.67S

...NORTHERN KANSAS...

CITY           SKY/WX    TMP DP  RH WIND       PRES   REMARKS
GOODLAND       MOCLDY    51  20  29 S14       29.54F
HILL CITY      CLEAR     54  32  43 S10       29.56S
NORTON         CLEAR     54  27  35 S8        29.53F
PHILLIPSBURG   CLEAR     55  37  50 SE8       29.56S
SMITH CENTER   CLEAR     48  39  71 SE12      29.58S
BELOIT         CLOUDY    55  54  94 S16G22    29.62R
HAYS           CLOUDY    54  48  82 S16G22    29.60S
RUSSELL        CLOUDY    56  53  90 S23G29    29.59F
CONCORDIA      CLOUDY    57  54  89 S18G28    29.60S
SALINA         CLOUDY    60  53  77 S20G32    29.65F
TOPEKA         CLOUDY    57  52  83 S16G25    29.72F



USA.gov is the U.S. government's official web portal to all federal, state and local government web resources and services.